GSAT0213 (GALILEO 17)

Last updated on Sat Jul 05 2025 00:02:32 GMT+0000 (Coordinated Universal Time)

1 41861U 16069C 25185.12300350 -.00000019 00000+0 00000+0 0 9996 2 41861 55.2853 110.7312 0004588 303.4866 56.4533 1.70474419 53584
UTC large
Height (km)
Speed (km/s)
/
Latitude / Longitude
Inclination (degrees)
Orbital Period (minutes)
Azimuth
Elevation
Range (km)
Doppler Factor

Next 0 passes for location: London (51.5072 / 0.1276)

Sorry there are no passes over London.